| time (UTC) | temp C | wind direction | speed KPH | gust KPH | rain 1hr cm | rain 24hr cm | rain mn cm | humidity % | barometer mb |
| 20260504160210 | 20 | 241 | 6.4 | 0.0 | 0.00 | 0.00 | 0.00 | 45 | 1010.3 |
| 20260504150210 | 20 | 163 | 20.9 | 0.0 | 0.00 | 0.00 | 0.00 | 44 | 1010.1 |
| 20260504140209 | 20 | 16 | 9.7 | 0.0 | 0.00 | 0.00 | 0.00 | 49 | 1010.5 |
| 20260504130215 | 20 | 5 | 8.0 | 0.0 | 0.00 | 0.00 | 0.00 | 48 | 1010.9 |
| 20260504120210 | 19 | 36 | 16.1 | 0.0 | 0.00 | 0.00 | 0.00 | 51 | 1011.2 |
| 20260504110210 | 19 | 126 | 9.7 | 0.0 | 0.00 | 0.00 | 0.00 | 47 | 1011.6 |
| 20260504100212 | 19 | 112 | 20.9 | 0.0 | 0.00 | 0.00 | 0.00 | 56 | 1012.2 |
| 20260504080210 | 16 | 51 | 17.7 | 0.0 | 0.00 | 0.00 | 0.00 | 55 | 1013.3 |
| 20260504070212 | 13 | 60 | 11.3 | 0.0 | 0.00 | 0.00 | 0.00 | 62 | 1013.5 |
| 20260504060212 | 13 | 103 | 9.7 | 0.0 | 0.00 | 0.00 | 0.00 | 65 | 1013.4 |
| 20260504050210 | 7 | 113 | 9.7 | 0.0 | 0.00 | 0.00 | 0.00 | 87 | 1013.4 |
| 20260504043211 | 6 | 109 | 9.7 | 0.0 | 0.00 | 0.00 | 0.00 | 90 | 1013.2 |
| 20260504040211 | 5 | 107 | 3.2 | 0.0 | 0.00 | 0.00 | 0.00 | 90 | 1013.3 |
| 20260504033211 | 5 | 128 | 6.4 | 0.0 | 0.00 | 0.00 | 0.00 | 89 | 1013.6 |
| 20260504030212 | 7 | 123 | 0.0 | 0.0 | 0.00 | 0.00 | 0.00 | 87 | 1013.7 |
| 20260504023211 | 7 | 123 | 1.6 | 0.0 | 0.00 | 0.00 | 0.00 | 88 | 1013.7 |
| 20260504020212 | 8 | 157 | 0.0 | 0.0 | 0.00 | 0.00 | 0.00 | 86 | 1013.7 |
| 20260504013211 | 8 | 157 | 0.0 | 0.0 | 0.00 | 0.00 | 0.00 | 85 | 1013.8 |
| 20260504010211 | 8 | 157 | 1.6 | 0.0 | 0.00 | 0.00 | 0.00 | 82 | 1013.9 |
| 20260504003210 | 8 | 140 | 4.8 | 0.0 | 0.00 | 0.00 | 0.00 | 85 | 1014.1 |
| 20260504000208 | 7 | 167 | 4.8 | 0.0 | 0.00 | 0.00 | 0.00 | 83 | 1014.2 |
| 20260503233209 | 8 | 152 | 8.0 | 0.0 | 0.00 | 0.00 | 0.00 | 78 | 1014.4 |
| 20260503230209 | 10 | 200 | 8.0 | 0.0 | 0.00 | 0.00 | 0.00 | 72 | 1014.5 |
| 20260503223210 | 10 | 222 | 8.0 | 0.0 | 0.00 | 0.00 | 0.00 | 73 | 1014.4 |
| 20260503213210 | 11 | 220 | 9.7 | 0.0 | 0.00 | 0.00 | 0.00 | 70 | 1014.1 |
| 20260503210211 | 10 | 223 | 6.4 | 0.0 | 0.00 | 0.00 | 0.00 | 72 | 1013.9 |
| 20260503203209 | 12 | 186 | 6.4 | 0.0 | 0.00 | 0.00 | 0.00 | 67 | 1013.5 |
| 20260503200211 | 13 | 215 | 9.7 | 0.0 | 0.00 | 0.00 | 0.00 | 64 | 1013.2 |
| 20260503193210 | 13 | 205 | 9.7 | 0.0 | 0.00 | 0.00 | 0.00 | 65 | 1012.7 |
| 20260503190210 | 15 | 202 | 24.1 | 0.0 | 0.00 | 0.00 | 0.00 | 59 | 1012.2 |
| 20260503183209 | 16 | 195 | 22.5 | 0.0 | 0.00 | 0.00 | 0.00 | 57 | 1011.8 |
| 20260503180210 | 17 | 186 | 4.8 | 0.0 | 0.00 | 0.00 | 0.00 | 52 | 1011.5 |
| 20260503173209 | 18 | 258 | 6.4 | 0.0 | 0.00 | 0.00 | 0.00 | 47 | 1011.3 |
| 20260503170211 | 19 | 244 | 24.1 | 0.0 | 0.00 | 0.00 | 0.00 | 45 | 1011.7 |